Regional Weather Roundup
Issued by NWS

Home | Current Version | Previous Version | Graphics & Text | Print | Product List | Glossary On
Versions: 1 2 3 4 5 6 7 8 9 10 11 12 13 14 15 16 17 18 19 20 21 22 23 24 25 26 27 28 29 30 31 32 33 34 35 36 37 38 39 40 41 42 43 44 45 46 47 48 49 50
000
ASUS43 KLOT 240808
RWRIL

ILLINOIS REGIONAL WEATHER ROUNDUP
NATIONAL WEATHER SERVICE CHICAGO/ROMEOVILLE IL
300 AM CDT SUN JUL 24 2016

NOTE: "FAIR" INDICATES FEW OR NO CLOUDS BELOW 12,000 FEET WITH NO
SIGNIFICANT WEATHER AND/OR OBSTRUCTIONS TO VISIBILITY.

* THESE STATIONS ARE NOT UNDER NWS QUALITY CONTROL. THEY ALSO MAY NOT
  REPORT WEATHER SUCH AS PRECIPITATION OR FOG.

ILZ001-002-007-009-015-016-024-240900-
NORTHWEST ILLINOIS

CITY           SKY/WX    TMP DP  RH WIND       PRES   REMARKS
MOLINE         CLOUDY    80  75  84 S7        29.88  HX  85
STERLING*      CLOUDY    74  72  93 VRB5      29.90F
SAVANNA*       CLEAR     72  70  94 S5        29.88S
$$

ILZ003-004-008-010-011-017-018-240900-
NORTH CENTRAL ILLINOIS

CITY           SKY/WX    TMP DP  RH WIND       PRES   REMARKS
ROCKFORD       CLOUDY    72  69  90 S9        29.91F
FREEPORT*      CLEAR     71  69  93 S10       29.91S
ROCHELLE*      CLOUDY    71  69  96 SE9       29.91F
DE KALB*       CLOUDY    71  70  97 S10       29.93F
$$

ILZ005-006-012>014-019>023-240900-
NORTHEAST ILLINOIS

CITY           SKY/WX    TMP DP  RH WIND       PRES   REMARKS
CHICAGO-OHARE  CLOUDY    71  70  96 S10       29.92F
CHICAGO-MIDWAY CLOUDY    73  70  90 S8        29.92F
AURORA         MOCLDY    72  70  93 SE8       29.93F
LANSING*       CLOUDY    71  69  94 S3        29.94F
JOLIET*        CLOUDY    72  71  96 CALM      29.94F
WAUKEGAN       CLOUDY    72  70  93 S9        29.90F
DUPAGE AIRPORT CLOUDY    71  69  93 S8        29.92F
WHEELING       CLOUDY    72  70  93 S9        29.92F
MORRIS*        CLOUDY    71  70  96 CALM      29.92F
ROMEOVILLE*    CLOUDY    71  68  92 S5        29.93F
NORTHERLY ISL    N/A     72  69  90 S7          N/A
$$

LMZ740>746-240900-
SOUTHERN LAKE MICHIGAN

STATION/POSITION SKY/WX   TEMP    WIND        PRES    VSBY  WAVE
                          AIR SEA DIR/SP/G                  HT/PER
                          (F)     (DEG/KT/KT) (MB)    (MI)  (FT/S)
SOUTHERN BUOY              72 72  140/ 14/ 16 1012.4F         1/ 3
WILMETTE HARBOR            69 68  200/ 10/ 14   N/A           2/ 3
HARRISON CRIB              74     150/ 16/ 18   N/A
BURNHAM HARBOR             72     250/  5/  9   N/A
CALUMET HARBOR             71     120/  5/  8 1013.4F
BURNS HARBOR               72     130/  6/ 10 1014.9F
MICHIGAN CITY              71     170/  7/  8   N/A
MICHIGAN CITY 6N           71 73  200/  8/ 12   N/A           2/ 4
ST. JOSEPH                 71 74  160/ 12/ 14 1013.4F         2/ 3
$$

ILZ025>027-034>036-040-047-049-050-058-095>099-240900-
WEST-CENTRAL ILLINOIS

CITY           SKY/WX    TMP DP  RH WIND       PRES   REMARKS
QUINCY         PTCLDY    81  75  82 S8        29.90S HX  87
GALESBURG*     CLOUDY    78  75  91 S5        29.90F HX  80
MACOMB*        PTCLDY    77  76  95 S6        29.93S
JACKSONVILLE*  CLOUDY    80  75  86 S5        29.92F HX  84
PITTSFIELD*    CLEAR     78  76  92 S3        29.93S HX  82
$$

ILZ028>032-037-038-041>044-048-051>054-059>061-240900-
CENTRAL ILLINOIS

CITY           SKY/WX    TMP DP  RH WIND       PRES   REMARKS
PONTIAC        CLOUDY    76  76  99 E6        29.95F
BLOOMINGTON    CLEAR     77  75  93 S9        29.95F FOG
DECATUR        MOCLDY    79  75  87 S7        29.95F HX  83
PEORIA         CLOUDY    80  77  90 S8        29.92S HX  87
LACON*         CLOUDY    78  75  90 S7        29.91F HX  81
LINCOLN*       PTCLDY    78  77  97 S3        29.93F FOG     HX  80
SPRINGFIELD    CLEAR     80  75  84 S6        29.93F HX  85
TAYLORVILLE    MOCLDY    76  75  96 NW6       29.94F FOG
$$

ILZ033-039-045-046-055>057-062-063-240900-
EAST-CENTRAL ILLINOIS

CITY           SKY/WX    TMP DP  RH WIND       PRES   REMARKS
CHAMPAIGN      PTCLDY    76  74  93 SE6       29.96F FOG
MATTOON        CLOUDY    77  74  90 S3        29.95F FOG
PARIS*           N/A     74  74 100 CALM      29.98R FOG
$$

ILZ079-100>102-240900-
SOUTHWEST ILLINOIS

CITY           SKY/WX    TMP DP  RH WIND       PRES   REMARKS
ALTON          MOCLDY    76  74  93 CALM      29.93F
BELLEVILLE     MOCLDY    76  76 100 CALM      29.92S
CAHOKIA*       PTCLDY    78  74  87 S5        29.92F HX  81
SPARTA*        PTCLDY    77  75  94 CALM      29.95F
$$

ILZ064>066-069>071-074>076-080>082-084>086-088>090-092>094-240900-
SOUTH-CENTRAL ILLINOIS

CITY           SKY/WX    TMP DP  RH WIND       PRES   REMARKS
CARBONDALE     CLEAR     76  75  97 CALM      29.93F FOG
CAIRO*         CLEAR     76  76 100 CALM      29.94S FOG
EFFINGHAM*     CLOUDY    74  74 100 SE3       29.97F FOG
MARION         CLEAR     77  77 100 CALM      29.95F
MT. VERNON     CLEAR     75  70  83 CALM      29.96S
CENTRALIA*     PTCLDY    76  76 100 CALM      29.95S FOG
SALEM*         CLOUDY    78  75  91 CALM      29.95F HX  81
METROPOLIS*    CLEAR     76  74  96 CALM      29.95F
$$

ILZ067-068-072-073-078-083-087-091-240900-
SOUTHEAST ILLINOIS

CITY           SKY/WX    TMP DP  RH WIND       PRES   REMARKS
LAWRENCEVILLE  CLEAR     76  76 100 CALM      29.96F FOG
FLORA*         CLOUDY    77  76  96 CALM      29.95F FOG
FAIRFIELD*     CLEAR     76  76  98 CALM      29.94F FOG
HARRISBURG*    PTCLDY    76  76  99 CALM      29.94F FOG
ROBINSON*        N/A     73  73 100 CALM      29.96S FOG
CARMI*         FOG       75  75 100 CALM      29.94F VSB 1
$$

ABBREVIATIONS USED IN REMARKS
   TC - TEMPERATURE IN CELSIUS
  WCI - WIND CHILL INDEX
   HX - HEAT INDEX
  VSB - VISIBILITY
$$





USA.gov is the U.S. government's official web portal to all federal, state and local government web resources and services.